Year,Month,Day,Hour,Minute,Value (Times are PST for temperature in C)
2016,12,06,08,08,0.20
2016,12,06,08,09,0.20
2016,12,06,08,10,0.20
2016,12,06,08,11,0.20
2016,12,06,08,12,0.20
2016,12,06,08,13,0.20
2016,12,06,08,14,0.20
2016,12,06,08,15,0.20
2016,12,06,08,16,0.20
2016,12,06,08,17,0.20
2016,12,06,08,18,0.20
2016,12,06,08,19,0.20
2016,12,06,08,20,0.20
2016,12,06,08,21,0.20
2016,12,06,08,22,0.30
2016,12,06,08,23,0.30
2016,12,06,08,24,0.30
2016,12,06,08,25,0.30
2016,12,06,08,26,0.30
2016,12,06,08,27,0.30
2016,12,06,08,28,0.30
2016,12,06,08,29,0.30
2016,12,06,08,30,0.30
2016,12,06,08,31,0.30
2016,12,06,08,32,0.30
2016,12,06,08,33,0.30
2016,12,06,08,34,0.30
2016,12,06,08,35,0.30
2016,12,06,08,36,0.30
2016,12,06,08,37,0.30
2016,12,06,08,38,0.30
2016,12,06,08,39,0.30
2016,12,06,08,40,0.30
2016,12,06,08,41,0.30
2016,12,06,08,42,0.30
2016,12,06,08,43,0.30
2016,12,06,08,44,0.40
2016,12,06,08,45,0.40
2016,12,06,08,46,0.40
2016,12,06,08,47,0.40
2016,12,06,08,48,0.40
2016,12,06,08,49,0.40
2016,12,06,08,50,0.40
2016,12,06,08,51,0.50
2016,12,06,08,52,0.50
2016,12,06,08,53,0.50
2016,12,06,08,54,0.50
2016,12,06,08,55,0.60
2016,12,06,08,56,0.60
2016,12,06,08,57,0.60
2016,12,06,08,58,0.60
2016,12,06,08,59,0.60
2016,12,06,09,00,0.70
2016,12,06,09,01,0.70
2016,12,06,09,02,0.70
2016,12,06,09,03,0.70
2016,12,06,09,04,0.70
2016,12,06,09,05,0.80
2016,12,06,09,06,0.80
2016,12,06,09,07,0.80
2016,12,06,09,08,0.80
2016,12,06,09,09,0.80
2016,12,06,09,10,0.90
2016,12,06,09,11,0.90
2016,12,06,09,12,1.00
2016,12,06,09,13,1.00
2016,12,06,09,14,1.00
2016,12,06,09,15,1.00
2016,12,06,09,16,1.10
2016,12,06,09,17,1.10
2016,12,06,09,18,1.10
2016,12,06,09,19,1.20
2016,12,06,09,20,1.20
2016,12,06,09,21,1.20
2016,12,06,09,22,1.20
2016,12,06,09,23,1.30
2016,12,06,09,24,1.30
2016,12,06,09,25,1.30
2016,12,06,09,26,1.30
2016,12,06,09,27,1.30
2016,12,06,09,28,1.30
2016,12,06,09,29,1.30
2016,12,06,09,30,1.30
2016,12,06,09,31,1.30
2016,12,06,09,32,1.30
2016,12,06,09,33,1.30
2016,12,06,09,34,1.40
2016,12,06,09,35,1.40
2016,12,06,09,36,1.40
2016,12,06,09,37,1.50
2016,12,06,09,38,1.50
2016,12,06,09,39,1.60
2016,12,06,09,40,1.60
2016,12,06,09,41,1.60
2016,12,06,09,42,1.70
2016,12,06,09,43,1.80
2016,12,06,09,44,1.80
2016,12,06,09,45,1.80
2016,12,06,09,46,1.90
2016,12,06,09,47,2.00
2016,12,06,09,48,2.10
2016,12,06,09,49,2.10
2016,12,06,09,50,2.20
2016,12,06,09,51,2.20
2016,12,06,09,52,2.20
2016,12,06,09,53,2.20
2016,12,06,09,54,2.30
2016,12,06,09,55,2.30
2016,12,06,09,56,2.30
2016,12,06,09,57,2.30
2016,12,06,09,58,2.30
2016,12,06,09,59,2.30
2016,12,06,10,00,2.30
2016,12,06,10,01,2.30
2016,12,06,10,02,2.40
2016,12,06,10,03,2.40
2016,12,06,10,04,2.40
2016,12,06,10,05,2.40
2016,12,06,10,06,2.40
2016,12,06,10,07,2.40
2016,12,06,10,08,2.40
2016,12,06,10,09,2.40
2016,12,06,10,10,2.30
2016,12,06,10,11,2.30
2016,12,06,10,12,2.30
2016,12,06,10,13,2.30
2016,12,06,10,14,2.20
2016,12,06,10,15,2.20
2016,12,06,10,16,2.20
2016,12,06,10,17,2.10
2016,12,06,10,18,2.10
2016,12,06,10,19,2.10
2016,12,06,10,20,2.00
2016,12,06,10,21,2.00
2016,12,06,10,22,1.90
2016,12,06,10,23,1.90
2016,12,06,10,24,1.90
2016,12,06,10,25,1.90
2016,12,06,10,26,1.90
2016,12,06,10,27,1.90
2016,12,06,10,28,1.90
2016,12,06,10,29,1.90
2016,12,06,10,30,1.90
2016,12,06,10,31,1.90
2016,12,06,10,32,1.90
2016,12,06,10,33,1.90
2016,12,06,10,34,1.90
2016,12,06,10,35,1.90
2016,12,06,10,36,1.90
2016,12,06,10,37,1.90
2016,12,06,10,38,1.90
2016,12,06,10,39,1.90
2016,12,06,10,40,1.90
2016,12,06,10,41,1.90
2016,12,06,10,42,2.00
2016,12,06,10,43,2.00
2016,12,06,10,44,2.00
2016,12,06,10,45,2.00
2016,12,06,10,46,2.00
2016,12,06,10,47,2.00
2016,12,06,10,48,2.00
2016,12,06,10,49,2.10
2016,12,06,10,50,2.10
2016,12,06,10,51,2.10
2016,12,06,10,52,2.10
2016,12,06,10,53,2.10
2016,12,06,10,54,2.20
2016,12,06,10,55,2.20
2016,12,06,10,56,2.20
2016,12,06,10,57,2.20
2016,12,06,10,58,2.20
2016,12,06,10,59,2.20
2016,12,06,11,00,2.20
2016,12,06,11,01,2.20
2016,12,06,11,02,2.20
2016,12,06,11,03,2.20
2016,12,06,11,04,2.20
2016,12,06,11,05,2.20
2016,12,06,11,06,2.20
2016,12,06,11,07,2.20
2016,12,06,11,08,2.20
2016,12,06,11,09,2.20
2016,12,06,11,10,2.20
2016,12,06,11,11,2.20
2016,12,06,11,12,2.20
2016,12,06,11,13,2.30
2016,12,06,11,14,2.30
2016,12,06,11,15,2.30
2016,12,06,11,16,2.30
2016,12,06,11,17,2.30
2016,12,06,11,18,2.30
2016,12,06,11,19,2.30
2016,12,06,11,20,2.30
2016,12,06,11,21,2.30
2016,12,06,11,22,2.30
2016,12,06,11,23,2.30
2016,12,06,11,24,2.30
2016,12,06,11,25,2.30
2016,12,06,11,26,2.30
2016,12,06,11,27,2.30
2016,12,06,11,28,2.30
2016,12,06,11,29,2.30
2016,12,06,11,30,2.30
2016,12,06,11,31,2.30
2016,12,06,11,32,2.30
2016,12,06,11,33,2.30
2016,12,06,11,34,2.30
2016,12,06,11,35,2.40
2016,12,06,11,36,2.40
2016,12,06,11,37,2.40
2016,12,06,11,38,2.40
2016,12,06,11,39,2.40
2016,12,06,11,40,2.40
2016,12,06,11,41,2.40
2016,12,06,11,42,2.40
2016,12,06,11,43,2.40
2016,12,06,11,44,2.40
2016,12,06,11,45,2.40
2016,12,06,11,46,2.40
2016,12,06,11,47,2.40
2016,12,06,11,48,2.40
2016,12,06,11,49,2.40
2016,12,06,11,50,2.40
2016,12,06,11,51,2.50
2016,12,06,11,52,2.50
2016,12,06,11,53,2.50
2016,12,06,11,54,2.50
2016,12,06,11,55,2.50
2016,12,06,11,56,2.50
2016,12,06,11,57,2.50
2016,12,06,11,58,2.50
2016,12,06,11,59,2.50
2016,12,06,12,00,2.50
2016,12,06,12,01,2.50
2016,12,06,12,02,2.50
2016,12,06,12,03,2.50
2016,12,06,12,04,2.50
2016,12,06,12,05,2.50
2016,12,06,12,06,2.60
2016,12,06,12,07,2.60
2016,12,06,12,08,2.60
2016,12,06,12,09,2.60
2016,12,06,12,10,2.60
2016,12,06,12,11,2.60
2016,12,06,12,12,2.60
2016,12,06,12,13,2.60
2016,12,06,12,14,2.70
2016,12,06,12,15,2.70
2016,12,06,12,16,2.70
2016,12,06,12,17,2.70
2016,12,06,12,18,2.70
2016,12,06,12,19,2.80
2016,12,06,12,20,2.80
2016,12,06,12,21,2.80
2016,12,06,12,22,2.80
2016,12,06,12,23,2.80
2016,12,06,12,24,2.80
2016,12,06,12,25,2.80
2016,12,06,12,26,2.80
2016,12,06,12,27,2.80
2016,12,06,12,28,2.80
2016,12,06,12,29,2.80
2016,12,06,12,30,2.70
2016,12,06,12,31,2.70
2016,12,06,12,32,2.70
2016,12,06,12,33,2.70
2016,12,06,12,34,2.70
2016,12,06,12,35,2.70
2016,12,06,12,36,2.70
2016,12,06,12,37,2.70
2016,12,06,12,38,2.70
2016,12,06,12,39,2.70
2016,12,06,12,40,2.70
2016,12,06,12,41,2.60
2016,12,06,12,42,2.70
2016,12,06,12,43,2.70
2016,12,06,12,44,2.70
2016,12,06,12,45,2.70
2016,12,06,12,46,2.70
2016,12,06,12,47,2.80
2016,12,06,12,48,2.80
2016,12,06,12,49,2.80
2016,12,06,12,50,2.80
2016,12,06,12,51,2.80
2016,12,06,12,52,2.80
2016,12,06,12,53,2.80
2016,12,06,12,54,2.90
2016,12,06,12,55,2.90
2016,12,06,12,56,2.90
2016,12,06,12,57,2.90
2016,12,06,12,58,2.90
2016,12,06,12,59,2.90
2016,12,06,13,00,2.90
2016,12,06,13,01,3.00
2016,12,06,13,02,3.00
2016,12,06,13,03,3.00
2016,12,06,13,04,3.00
2016,12,06,13,05,3.00
2016,12,06,13,06,3.00
2016,12,06,13,07,3.00
2016,12,06,13,08,3.00
2016,12,06,13,09,3.00
2016,12,06,13,10,3.00
2016,12,06,13,11,3.00
2016,12,06,13,12,3.00
2016,12,06,13,13,3.00
2016,12,06,13,14,2.90
2016,12,06,13,15,2.90
2016,12,06,13,16,2.90
2016,12,06,13,17,3.00
2016,12,06,13,18,2.90
2016,12,06,13,19,2.90
2016,12,06,13,20,2.90
2016,12,06,13,21,2.90
2016,12,06,13,22,2.90
2016,12,06,13,23,2.90
2016,12,06,13,24,2.90
2016,12,06,13,25,2.90
2016,12,06,13,26,2.90
2016,12,06,13,27,2.90
2016,12,06,13,28,2.90
2016,12,06,13,29,2.90
2016,12,06,13,30,2.90
2016,12,06,13,31,2.90
2016,12,06,13,32,2.90
2016,12,06,13,33,2.90
2016,12,06,13,34,2.90
2016,12,06,13,35,2.90
2016,12,06,13,36,2.90
2016,12,06,13,37,2.90
2016,12,06,13,38,2.90
2016,12,06,13,39,2.90
2016,12,06,13,40,2.90
2016,12,06,13,41,2.90
2016,12,06,13,42,2.90
2016,12,06,13,43,2.90
2016,12,06,13,44,2.90
2016,12,06,13,45,2.80
2016,12,06,13,46,2.80
2016,12,06,13,47,2.80
2016,12,06,13,48,2.80
2016,12,06,13,49,2.70
2016,12,06,13,50,2.70
2016,12,06,13,51,2.70
2016,12,06,13,52,2.70
2016,12,06,13,53,2.70
2016,12,06,13,54,2.70
2016,12,06,13,55,2.70
2016,12,06,13,56,2.70
2016,12,06,13,57,2.70
2016,12,06,13,58,2.70
2016,12,06,13,59,2.70
2016,12,06,14,00,2.70
2016,12,06,14,01,2.70
2016,12,06,14,02,2.70
2016,12,06,14,03,2.70
2016,12,06,14,04,2.70
2016,12,06,14,05,2.60
2016,12,06,14,06,2.60
2016,12,06,14,07,2.60
2016,12,06,14,08,2.60
2016,12,06,14,09,2.50
2016,12,06,14,10,2.50
2016,12,06,14,11,2.50
2016,12,06,14,12,2.40
2016,12,06,14,13,2.40
2016,12,06,14,14,2.40
2016,12,06,14,15,2.40
2016,12,06,14,16,2.40
2016,12,06,14,17,2.40
2016,12,06,14,18,2.40
2016,12,06,14,19,2.40
2016,12,06,14,20,2.50
2016,12,06,14,21,2.50
2016,12,06,14,22,2.60
2016,12,06,14,23,2.60
2016,12,06,14,24,2.60
2016,12,06,14,25,2.70
2016,12,06,14,26,2.70
2016,12,06,14,27,2.70
2016,12,06,14,28,2.70
2016,12,06,14,29,2.70
2016,12,06,14,30,2.70
2016,12,06,14,31,2.70
2016,12,06,14,32,2.60
2016,12,06,14,33,2.60
2016,12,06,14,34,2.50
2016,12,06,14,35,2.50
2016,12,06,14,36,2.40
2016,12,06,14,37,2.40
2016,12,06,14,38,2.30
2016,12,06,14,39,2.30
2016,12,06,14,40,2.30
2016,12,06,14,41,2.30
2016,12,06,14,42,2.20
2016,12,06,14,43,2.20
2016,12,06,14,44,2.20
2016,12,06,14,45,2.10
2016,12,06,14,46,2.10
2016,12,06,14,47,2.10
2016,12,06,14,48,2.10
2016,12,06,14,49,2.10
2016,12,06,14,50,2.10
2016,12,06,14,51,2.10
2016,12,06,14,52,2.00
2016,12,06,14,53,2.00
2016,12,06,14,54,2.00
2016,12,06,14,55,2.00
2016,12,06,14,56,2.00
2016,12,06,14,57,1.90
2016,12,06,14,58,1.90
2016,12,06,14,59,1.90
2016,12,06,15,00,1.90
2016,12,06,15,01,1.90
2016,12,06,15,02,1.90
2016,12,06,15,03,1.90
2016,12,06,15,04,1.90
2016,12,06,15,05,1.80
2016,12,06,15,06,1.80
2016,12,06,15,07,1.80
2016,12,06,15,08,1.90
2016,12,06,15,09,1.90
2016,12,06,15,10,1.90
2016,12,06,15,11,1.90
2016,12,06,15,12,1.90
2016,12,06,15,13,1.90
2016,12,06,15,14,1.90
2016,12,06,15,15,1.90
2016,12,06,15,16,1.90
2016,12,06,15,17,1.90
2016,12,06,15,18,1.80
2016,12,06,15,19,1.80
2016,12,06,15,20,1.80
2016,12,06,15,21,1.80
2016,12,06,15,22,1.80
2016,12,06,15,23,1.80
2016,12,06,15,24,1.80
2016,12,06,15,25,1.80
2016,12,06,15,26,1.80
2016,12,06,15,27,1.70
2016,12,06,15,28,1.80
2016,12,06,15,29,1.80
2016,12,06,15,30,1.70
2016,12,06,15,31,1.70
2016,12,06,15,32,1.70
2016,12,06,15,33,1.70
2016,12,06,15,34,1.70
2016,12,06,15,35,1.70
2016,12,06,15,36,1.70
2016,12,06,15,37,1.70
2016,12,06,15,38,1.70
2016,12,06,15,39,1.70
2016,12,06,15,40,1.70
2016,12,06,15,41,1.70
2016,12,06,15,42,1.70
2016,12,06,15,43,1.70
2016,12,06,15,44,1.70
2016,12,06,15,45,1.70
2016,12,06,15,46,1.70
2016,12,06,15,47,1.70
2016,12,06,15,48,1.70
2016,12,06,15,49,1.70
2016,12,06,15,50,1.60
2016,12,06,15,51,1.60
2016,12,06,15,52,1.60
2016,12,06,15,53,1.60
2016,12,06,15,54,1.60
2016,12,06,15,55,1.50
2016,12,06,15,56,1.50
2016,12,06,15,57,1.50
2016,12,06,15,58,1.50
2016,12,06,15,59,1.50
2016,12,06,16,00,1.60
2016,12,06,16,01,1.60
2016,12,06,16,02,1.60
2016,12,06,16,03,1.50
2016,12,06,16,04,1.50
2016,12,06,16,05,1.50
2016,12,06,16,06,1.50
2016,12,06,16,07,1.50
2016,12,06,16,08,1.50
2016,12,06,16,09,1.50
2016,12,06,16,10,1.50
2016,12,06,16,11,1.50
2016,12,06,16,12,1.50
2016,12,06,16,13,1.50
2016,12,06,16,14,1.50
2016,12,06,16,15,1.50
2016,12,06,16,16,1.50
2016,12,06,16,17,1.60
2016,12,06,16,18,1.60
2016,12,06,16,19,1.60
2016,12,06,16,20,1.60
2016,12,06,16,21,1.60
2016,12,06,16,22,1.50
2016,12,06,16,23,1.50
2016,12,06,16,24,1.50
2016,12,06,16,25,1.50
2016,12,06,16,26,1.50
2016,12,06,16,27,1.50
2016,12,06,16,28,1.50
2016,12,06,16,29,1.50
2016,12,06,16,30,1.50
2016,12,06,16,31,1.60
2016,12,06,16,32,1.60
2016,12,06,16,33,1.60
2016,12,06,16,34,1.60
2016,12,06,16,35,1.60
2016,12,06,16,36,1.60
2016,12,06,16,37,1.60
2016,12,06,16,38,1.60
2016,12,06,16,39,1.50
2016,12,06,16,40,1.50
2016,12,06,16,41,1.50
2016,12,06,16,42,1.50
2016,12,06,16,43,1.40
2016,12,06,16,44,1.40
2016,12,06,16,45,1.40
2016,12,06,16,46,1.40
2016,12,06,16,47,1.40
2016,12,06,16,48,1.40
2016,12,06,16,49,1.40
2016,12,06,16,50,1.40
2016,12,06,16,51,1.40
2016,12,06,16,52,1.40
2016,12,06,16,53,1.40
2016,12,06,16,54,1.40
2016,12,06,16,55,1.40
2016,12,06,16,56,1.40
2016,12,06,16,57,1.40
2016,12,06,16,58,1.40
2016,12,06,16,59,1.30
2016,12,06,17,00,1.30
2016,12,06,17,01,1.30
2016,12,06,17,02,1.30
2016,12,06,17,03,1.30
2016,12,06,17,04,1.30
2016,12,06,17,05,1.30
2016,12,06,17,06,1.30
2016,12,06,17,07,1.30
2016,12,06,17,08,1.30
2016,12,06,17,09,1.30
2016,12,06,17,10,1.30
2016,12,06,17,11,1.30
2016,12,06,17,12,1.30
2016,12,06,17,13,1.30
2016,12,06,17,14,1.30
2016,12,06,17,15,1.30
2016,12,06,17,16,1.30
2016,12,06,17,17,1.30
2016,12,06,17,18,1.30
2016,12,06,17,19,1.30
2016,12,06,17,20,1.30
2016,12,06,17,21,1.30
2016,12,06,17,22,1.30
2016,12,06,17,23,1.30
2016,12,06,17,24,1.30
2016,12,06,17,25,1.30
2016,12,06,17,26,1.20
2016,12,06,17,27,1.20
2016,12,06,17,28,1.20
2016,12,06,17,29,1.30
2016,12,06,17,30,1.30
2016,12,06,17,31,1.30
2016,12,06,17,32,1.30
2016,12,06,17,33,1.30
2016,12,06,17,34,1.30
2016,12,06,17,35,1.30
2016,12,06,17,36,1.30
2016,12,06,17,37,1.30
2016,12,06,17,38,1.30
2016,12,06,17,39,1.30
2016,12,06,17,40,1.30
2016,12,06,17,41,1.30
2016,12,06,17,42,1.30
2016,12,06,17,43,1.30
2016,12,06,17,44,1.30
2016,12,06,17,45,1.30
2016,12,06,17,46,1.20
2016,12,06,17,47,1.20
2016,12,06,17,48,1.20
2016,12,06,17,49,1.20
2016,12,06,17,50,1.20
2016,12,06,17,51,1.20
2016,12,06,17,52,1.20
2016,12,06,17,53,1.10
2016,12,06,17,54,1.10
2016,12,06,17,55,1.00
2016,12,06,17,56,1.00
2016,12,06,17,57,1.00
2016,12,06,17,58,1.00
2016,12,06,17,59,0.90
2016,12,06,18,00,0.90
2016,12,06,18,01,0.90
2016,12,06,18,02,0.90
2016,12,06,18,03,0.90
2016,12,06,18,04,0.90
2016,12,06,18,05,0.90
2016,12,06,18,06,0.90
2016,12,06,18,07,0.90
2016,12,06,18,08,0.90
2016,12,06,18,09,0.80
2016,12,06,18,10,0.80
2016,12,06,18,11,0.80
2016,12,06,18,12,0.80
2016,12,06,18,13,0.80
2016,12,06,18,14,0.80
2016,12,06,18,15,0.80
2016,12,06,18,16,0.80
2016,12,06,18,17,0.80
2016,12,06,18,18,0.80
2016,12,06,18,19,0.80
2016,12,06,18,20,0.80
2016,12,06,18,21,0.80
2016,12,06,18,22,0.70
2016,12,06,18,23,0.70
2016,12,06,18,24,0.70
2016,12,06,18,25,0.70
2016,12,06,18,26,0.70
2016,12,06,18,27,0.60
2016,12,06,18,28,0.60
2016,12,06,18,29,0.60
2016,12,06,18,30,0.60
2016,12,06,18,31,0.60
2016,12,06,18,32,0.60
2016,12,06,18,33,0.60
2016,12,06,18,34,0.60
2016,12,06,18,35,0.60
2016,12,06,18,36,0.60
2016,12,06,18,37,0.60
2016,12,06,18,38,0.50
2016,12,06,18,39,0.50
2016,12,06,18,40,0.50
2016,12,06,18,41,0.40
2016,12,06,18,42,0.40
2016,12,06,18,43,0.40
2016,12,06,18,44,0.40
2016,12,06,18,45,0.40
2016,12,06,18,46,0.40
2016,12,06,18,47,0.40
2016,12,06,18,48,0.40
2016,12,06,18,49,0.40
2016,12,06,18,50,0.40
2016,12,06,18,51,0.40
2016,12,06,18,52,0.40
